Location: Aalbroek
(50.9361°N, 3.6592°E)
Time: 15:18:59
(UTC+00:00)

Daily predictions for brighter satellites

Satellite Brightness Start Highest point End
(mag) Time Altitude Azimuth Time Altitude Azimuth Time Altitude Azimuth
Cosmos 2082 Rocket 2.3 20:38:14 10° SSW 20:43:58 88° WNW 20:49:43 10° NNE
Spot 2 Rocket 3.6 20:39:19 10° SSE 20:44:21 70° ENE 20:49:26 10° N
Cosmos 1933 Rocket 3.7 20:40:56 10° NNW 20:45:23 81° W 20:49:49 10° S
Cosmos 1470 2.9 20:42:20 10° NNW 20:46:01 67° W 20:49:40 10° S
SPOT 5 3.3 20:44:51 10° S 20:49:04 53° W 20:53:22 10° NNW
Cosmos 1300 3.8 20:46:22 10° N 20:49:30 28° ENE 20:52:36 10° SE
Cosmos 1908 3.1 20:49:36 10° NNW 20:53:14 80° WSW 20:56:50 10° S
Cosmos 1346 Rocket 3.8 20:54:32 10° N 20:58:02 31° ENE 21:01:31 10° SE
ATLAS 2AS CENTAUR R/B 3.1 20:53:36 10° NW 21:00:28 60° NE 21:07:03 10° ESE
Cosmos 1674 3.7 20:57:37 10° SSW 21:00:57 43° WNW 21:04:17 10° N
Meteor 1-22 Rocket 4.3 20:56:36 10° N 21:02:12 78° ENE 21:08:01 10° SSE
Ariane Rocket 3.1 21:03:47 10° SSE 21:08:53 80° WSW 21:14:01 10° NNW
Cosmos 1758 3.6 21:05:29 10° N 21:09:18 51° ENE 21:12:54 11° SSE
Cosmos 1842 4.4 21:07:36 10° SSW 21:11:06 41° WNW 21:14:36 10° N
Meteor 1-4 Rocket 4.4 21:10:19 10° ESE 21:11:12 11° E 21:12:05 10° ENE
Cosmos 1356 Rocket 4.3 21:09:23 10° SSE 21:13:09 34° E 21:16:59 10° NNE
COSMOS 2406 3.7 21:11:32 10° SW 21:17:15 65° WNW 21:22:59 10° NNE
SPOT 3 Rocket 3.7 21:12:42 10° S 21:17:50 74° WSW 21:23:02 10° NNW
Meteor 1-13 Rocket 4.4 21:14:04 10° SSW 21:19:53 84° WNW 21:25:37 10° NNE
Cosmos 1707 Rocket 4.1 21:16:10 10° SSE 21:20:16 42° E 21:24:28 10° NNE
SL-27 R/B 3.7 21:19:33 14° SE 21:20:42 17° ESE 21:22:36 10° ENE
ARIANE 5 R/B 4.0 21:17:39 10° ESE 21:21:17 27° ENE 21:24:56 10° N
Cosmos 1980 Rocket 4.3 21:17:26 10° NW 21:21:31 20° W 21:25:33 10° SSW
Cosmos 2322 Rocket 2.3 21:16:32 10° NNW 21:22:15 81° ENE 21:27:28 13° SSE
S3M 4.2 21:15:51 10° NNW 21:22:16 78° W 21:28:34 10° S
Spot 1 4.4 21:19:13 10° NNE 21:23:35 55° ESE 21:28:11 10° S
Cosmos 1655 Rocket 4.1 21:23:47 10° S 21:30:08 71° E 21:36:31 10° NNE
Cosmos 2278 4.4 21:25:32 10° NW 21:31:01 49° WSW 21:36:25 10° S
Landsat 5 3.5 21:27:06 10° NNE 21:31:02 59° ESE 21:35:02 10° S
SJ 16-02 2.6 21:28:53 14° SE 21:31:33 23° E 21:35:00 10° NE
Cosmos 1741 Rocket 4.2 21:32:23 10° S 21:37:30 53° ESE 21:42:39 10° NNE
USA 281 3.5 21:32:45 12° SE 21:38:52 64° NE 21:45:23 10° NNW
Cosmos 2266 Rocket 4.3 21:33:34 10° SSW 21:39:52 75° W 21:46:19 10° N
Cosmos 1400 Rocket 2.9 21:36:08 10° SSW 21:40:02 73° WNW 21:43:54 10° N
COSMOS 2428 4.1 21:35:09 10° NNW 21:40:11 31° NE 21:45:13 10° ESE
Cosmos 1733 Rocket 3.0 21:36:09 10° N 21:40:35 85° E 21:44:16 15° S
GP-B 4.4 21:38:05 10° NNE 21:41:52 27° E 21:44:46 14° SE
MetOp-A 4.1 21:37:25 13° SSE 21:42:06 83° WSW 21:47:25 10° NNW
Okean 3 3.9 21:39:26 15° SSE 21:42:35 45° E 21:46:35 10° NNE
Terra 3.2 21:38:57 10° SSW 21:43:12 33° W 21:47:29 10° NNW
Cosmos 968 Rocket 3.9 21:41:01 12° S 21:45:33 45° ESE 21:50:30 10° NE
Cosmos 1814 Rocket 4.2 21:40:23 10° NNW 21:45:40 66° ENE 21:50:00 15° SE
SL-4 R/B 2.0 21:43:16 10° W 21:47:10 82° N 21:51:21 10° E
Cosmos 2228 Rocket 3.1 21:44:45 10° S 21:49:18 88° E 21:53:55 10° N
Cosmos 2219 Rocket 2.5 21:45:20 10° NNW 21:50:58 60° NE 21:55:47 14° SE
Cosmos 1908 Rocket 4.3 21:47:44 10° N 21:51:51 40° ENE 21:54:53 16° SE
Cosmos 1315 Rocket 3.7 21:51:04 18° SSE 21:53:26 33° E 21:57:02 10° NNE
ATLAS CENTAUR R/B 1.5 21:52:13 15° S 21:54:44 37° ESE 21:58:05 10° NE
Meteor 2-10 Rocket 4.2 21:50:01 10° NNW 21:55:32 55° W 22:00:34 11° S
Cosmos 1953 2.7 21:54:40 10° N 21:58:25 47° ENE 22:00:51 19° SE
Cosmos 1455 2.6 21:58:16 10° N 22:01:38 43° ENE 22:03:41 20° SE
H-2A R/B 3.5 21:59:30 15° SE 22:02:35 38° ENE 22:06:34 10° N
Cosmos 1242 Rocket 3.7 22:04:20 17° ESE 22:04:55 18° E 22:06:53 10° NE
USA 234 3.5 21:59:19 10° ENE 22:05:52 77° NNW 22:12:24 10° WSW
Okean 1-7 3.3 22:04:58 19° SSE 22:07:51 53° E 22:12:05 10° NNE
BREEZE-M DEB (TANK) 3.3 22:06:19 10° W 22:08:16 26° SSW 22:09:09 23° SSE
CZ-2C R/B 3.9 22:04:18 10° NNE 22:08:38 53° E 22:11:36 19° S
Cosmos 2360 Rocket 2.5 22:08:25 10° NW 22:13:59 58° WSW 22:18:06 18° S
ALOS 2 3.9 22:11:53 14° ESE 22:15:02 32° ENE 22:18:56 10° N
RESURS DK-1 3.8 22:15:10 10° NW 22:18:38 27° WSW 22:21:10 15° SSW
Cosmos 2333 Rocket 2.6 22:13:24 10° NW 22:19:01 58° WSW 22:23:08 19° S
SL-16 R/B 3.7 22:16:38 10° NW 22:21:20 27° WSW 22:25:47 11° SSW
SL-14 R/B 4.5 22:17:52 10° SW 22:21:25 38° WNW 22:25:00 10° N
Cosmos 1300 4.4 22:21:13 10° NW 22:24:06 24° W 22:26:54 11° SW
Atlas Centaur 2 4.4 22:21:02 10° SW 22:25:03 14° SSW 22:25:49 14° S
EXPRESS MD2 1.7 22:24:47 10° WSW 22:27:02 63° S 22:27:54 30° ESE
OPS 8737 4.1 22:24:35 10° NW 22:27:30 66° SW 22:28:45 31° SSE
SL-08 R/B 4.4 22:25:46 18° S 22:30:29 76° E 22:36:35 10° NNE
BREEZE-M DEB (TANK) 3.8 22:15:32 10° W 22:31:54 80° S 22:36:01 10° E
Cosmos 1346 Rocket 4.5 22:30:34 10° NW 22:33:46 25° W 22:36:35 12° SW
Aureole 3 4.1 22:30:50 14° SSW 22:34:00 54° WNW 22:38:39 10° N
Cosmos 1703 Rocket 3.6 22:32:44 22° S 22:35:28 67° E 22:39:56 10° NNE
Cosmos 1833 4.1 22:30:11 10° SSW 22:35:49 86° ESE 22:41:29 10° NNE
DNEPR-1 R/B 4.4 22:29:12 10° NW 22:36:05 71° SW 22:39:56 21° SSE
Cosmos 839 Rocket 4.4 22:36:44 10° NW 22:43:35 57° WSW 22:47:42 21° S
Meteor 1-4 Rocket 3.0 22:41:49 19° SW 22:43:38 43° WNW 22:46:33 10° N
Cosmos 1932 4.5 22:38:31 11° SSW 22:44:39 66° SE 22:50:52 10° NE
Cosmos 2322 3.7 22:39:49 10° NNW 22:45:34 86° ENE 22:49:30 21° SSE
Cosmos 2237 Rocket 3.4 22:41:20 10° NNW 22:46:38 37° NE 22:51:52 10° ESE
BlueWalker 3 3.8 22:50:03 15° ESE 22:50:03 15° ESE 22:51:28 10° E
ATLAS 2AS CENTAUR R/B 3.3 22:44:51 10° NW 22:51:11 42° WSW 22:55:16 20° S
SL-27 R/B 3.9 22:51:05 10° WSW 22:53:28 25° WNW 22:55:53 10° N
Cosmos 405 Rocket 4.5 22:50:36 10° NNE 22:53:37 23° ENE 22:55:58 14° ESE
Cosmos 2227 Rocket 4.3 22:54:36 10° ESE 22:56:02 11° E 22:57:29 10° E
ARIANE 5 R/B 3.4 22:54:58 20° SSW 22:57:31 40° W 23:01:38 10° NNW
PSLV R/B 4.1 22:56:14 10° N 23:00:13 64° WNW 23:02:51 20° SSW
Okean 2 4.2 23:00:22 16° SW 23:03:15 43° WNW 23:07:06 10° N
Cosmos 2322 Rocket 4.0 23:01:38 10° NW 23:05:38 20° W 23:09:15 11° SW
Cosmos 1570 Rocket 4.1 23:00:51 10° NNW 23:06:11 68° WSW 23:09:22 24° S
PSLV R/B 4.4 23:03:12 10° NNE 23:07:10 36° E 23:08:58 24° SE
Cosmos 1703 4.0 23:06:49 26° SE 23:08:11 36° E 23:11:36 10° NNE
SJ 16-02 2.3 23:05:36 11° SW 23:09:38 44° WNW 23:13:49 10° NNE
Cosmos 1745 Rocket 4.0 23:05:11 21° S 23:09:40 89° ESE 23:16:05 10° N
Cosmos 1241 Rocket 4.4 23:04:31 10° SW 23:10:44 89° NW 23:17:02 10° NE
COSMOS 2455 3.5 23:08:59 23° SSE 23:12:01 37° ESE 23:17:30 10° NE
Cosmos 2297 Rocket 3.3 23:13:10 20° SE 23:15:46 29° ESE 23:20:32 10° NE
Nadezhda 1 Rocket 4.3 23:11:18 10° NNW 23:17:32 61° W 23:21:42 21° SSW
Cosmos 2181 Rocket 4.5 23:11:44 10° N 23:17:50 53° ENE 23:22:13 19° SE
GP-B 4.2 23:15:04 10° NNW 23:19:08 37° W 23:22:05 17° SW
Cosmos 1408 1.9 23:22:14 44° SSW 23:23:04 86° W 23:26:04 10° N
USA 281 4.2 23:19:37 17° SSW 23:23:45 33° WSW 23:29:36 10° NW
COSMOS 2428 2.8 23:19:13 10° NW 23:24:51 63° WSW 23:28:13 25° S
SL-4 R/B 1.9 23:21:59 10° WNW 23:26:02 83° SSW 23:30:20 10° ESE
GEOS 3 Rocket 4.3 23:24:28 10° NE 23:29:15 37° ESE 23:31:28 25° SSE
Cosmos 1782 Rocket 4.4 23:28:01 10° NNW 23:32:04 40° W 23:34:15 23° SSW
ATLAS CENTAUR R/B 2.9 23:29:16 10° W 23:32:26 30° NW 23:35:44 10° NNE
Cosmos 1953 4.4 23:31:23 10° NW 23:33:52 17° W 23:35:58 11° WSW
Cosmos 2219 Rocket 3.4 23:29:48 10° NW 23:34:33 28° WSW 23:37:28 18° SSW
Cosmos 1455 4.3 23:33:37 10° NW 23:35:43 15° W 23:37:24 12° WSW
Cosmos 1242 Rocket 3.9 23:35:32 16° WSW 23:36:51 22° WNW 23:39:06 10° NNW
Cosmos 2208 Rocket 4.4 23:31:50 10° NNW 23:36:52 50° WSW 23:39:34 25° S
H-2A R/B 3.9 23:35:29 19° SW 23:37:35 28° W 23:41:18 10° NW
Cosmos 158 Rocket 4.4 23:34:12 10° NNW 23:39:22 52° WSW 23:42:07 26° S
Cosmos 1892 3.9 23:38:13 22° SE 23:39:28 27° E 23:42:29 10° NNE
Cosmos 371 Rocket 3.4 23:39:00 27° S 23:41:27 62° ESE 23:46:13 10° NNE
BREEZE-M DEB (TANK) 4.0 23:39:06 10° W 23:42:44 77° S 23:55:16 10° ESE
USA 129 4.3 23:43:25 10° NNW 23:44:01 12° NW 23:44:01 12° NW
Cosmos 773 Rocket 3.9 23:41:38 10° NNW 23:46:48 78° WSW 23:49:51 25° SSE
NOSS 8 (E) 4.4 23:45:42 32° SSW 23:47:11 66° SE 23:50:16 10° NE
Cosmos 2151 Rocket 3.7 23:43:14 10° N 23:47:39 68° ENE 23:50:04 26° SSE
USA 234 4.1 23:42:14 10° ENE 23:48:34 53° N 23:54:52 10° WNW
ALOS 2 3.6 23:49:16 22° SW 23:51:19 34° W 23:55:21 10° NNW
GENESIS II 4.0 23:49:40 24° SW 23:51:46 79° NW 23:55:25 10° NE
Cosmos 2263 Rocket 4.3 23:51:36 10° ESE 23:53:41 12° E 23:55:47 10° ENE
Okean 2 Rocket 3.2 23:50:31 10° N 23:55:00 74° E 23:57:29 26° SSE
